DW6047 Weather Reports


Display with metric or nautical units.
time (UTC)temp
F
wind
direction
speed
MPH
gust
MPH
rain 1hr
in
rain 24hr
in
rain mn
in
humidity
%
barometer
mb
20181218114943 32 10 2.0 7.0 0.00 0.00 0.00 65 1016.1
20181218114648 31 17 1.0 7.0 0.00 0.00 0.00 65 1017.4
20181218114043 32 46 1.0 7.0 0.00 0.00 0.00 64 1015.9
20181218113143 32 28 1.0 5.0 0.00 0.00 0.00 64 1015.7
20181218112243 32 29 1.0 5.0 0.00 0.00 0.00 63 1015.7
20181218111722 32 337 1.0 7.0 0.00 0.00 0.00 63 1017.0
20181218111343 32 333 2.0 7.0 0.00 0.00 0.00 62 1015.5
20181218110443 32 16 2.0 7.0 0.00 0.00 0.00 62 1015.4
20181218105543 32 8 1.0 6.0 0.00 0.00 0.00 61 1015.5
20181218104643 32 355 1.0 5.0 0.00 0.00 0.00 61 1015.3
20181218103743 33 3 2.0 6.0 0.00 0.00 0.00 60 1015.4
20181218102843 33 354 3.0 8.0 0.00 0.00 0.00 59 1015.4
20181218101943 33 357 2.0 9.0 0.00 0.00 0.00 59 1015.3
20181218101501 33 35 1.0 9.0 0.00 0.00 0.00 58 1016.5
20181218101043 33 351 2.0 7.0 0.00 0.00 0.00 58 1015.2
20181218100155 33 355 1.0 7.0 0.00 0.00 0.00 58 1016.4
20181218100143 33 359 1.0 7.0 0.00 0.00 0.00 58 1015.0
20181218095243 34 345 2.0 7.0 0.00 0.00 0.00 57 1014.9
20181218094508 33 338 2.0 7.0 0.00 0.00 0.00 56 1016.1
20181218094343 34 8 3.0 7.0 0.00 0.00 0.00 56 1014.7
20181218093443 34 6 3.0 10.0 0.00 0.00 0.00 55 1014.6
20181218093145 34 343 3.0 10.0 0.00 0.00 0.00 55 1015.8
20181218092543 34 8 2.0 9.0 0.00 0.00 0.00 54 1014.4
20181218091643 34 8 3.0 7.0 0.00 0.00 0.00 55 1014.4
20181218090743 34 347 2.0 10.0 0.00 0.00 0.00 57 1014.1
20181218090149 34 34 1.0 10.0 0.00 0.00 0.00 57 1015.4
20181218085843 34 12 2.0 10.0 0.00 0.00 0.00 57 1014.1
20181218084943 35 10 2.0 8.0 0.00 0.00 0.00 57 1014.0
20181218084504 34 257 2.0 8.0 0.00 0.00 0.00 57 1015.0
20181218084043 35 7 2.0 8.0 0.00 0.00 0.00 58 1013.6
20181218083143 35 3 2.0 7.0 0.00 0.00 0.00 57 1013.4
20181218082243 36 353 1.0 12.0 0.00 0.00 0.00 57 1013.3
20181218081501 36 344 0.0 5.0 0.00 0.00 0.00 60 1014.4
20181218081343 36 327 1.0 7.0 0.00 0.00 0.00 60 1013.2
20181218080443 36 339 1.0 6.0 0.00 0.00 0.00 59 1013.0
20181218075543 36 319 1.0 6.0 0.00 0.00 0.00 60 1013.2
20181218074643 36 110 1.0 8.0 0.00 0.00 0.00 59 1012.8
20181218074502 36 342 1.0 8.0 0.00 0.00 0.00 59 1014.0
20181218073743 37 335 1.0 8.0 0.00 0.00 0.00 59 1012.5
20181218073345 36 49 1.0 8.0 0.00 0.00 0.00 59 1013.8
20181218072843 37 3 1.0 8.0 0.00 0.00 0.00 59 1012.5
20181218071943 37 56 1.0 5.0 0.00 0.00 0.00 58 1012.4
20181218071501 37 41 1.0 4.0 0.00 0.00 0.00 58 1013.5
20181218071043 37 41 1.0 6.0 0.00 0.00 0.00 58 1012.3
20181218070143 37 254 2.0 9.0 0.00 0.00 0.00 58 1012.1
20181218065243 37 296 1.0 10.0 0.00 0.00 0.00 58 1012.2
20181218064343 37 324 1.0 7.0 0.00 0.00 0.00 61 1011.7
20181218063443 37 344 1.0 8.0 0.00 0.00 0.00 62 1011.9
20181218062543 37 4 1.0 7.0 0.00 0.00 0.00 60 1011.9
20181218061643 37 334 1.0 8.0 0.00 0.00 0.00 60 1011.7
20181218060743 37 5 1.0 5.0 0.00 0.00 0.00 59 1011.4
20181218060142 37 55 0.0 6.0 0.00 0.00 0.00 59 1012.6
20181218055843 37 346 2.0 6.0 0.00 0.00 0.00 60 1011.4
20181218054943 37 3 1.0 6.0 0.00 0.00 0.00 60 1011.3
20181218054502 37 277 1.0 6.0 0.00 0.00 0.00 60 1012.7
20181218054043 38 49 2.0 5.0 0.00 0.00 0.00 60 1011.5
20181218053143 38 357 2.0 9.0 0.00 0.00 0.00 60 1011.5
20181218052243 38 292 2.0 9.0 0.00 0.00 0.00 61 1011.5
20181218051502 37 355 0.0 7.0 0.00 0.00 0.00 61 1012.9
20181218051343 38 320 2.0 8.0 0.00 0.00 0.00 62 1011.6
20181218050443 38 251 2.0 12.0 0.00 0.00 0.00 62 1011.7
20181218045543 38 284 2.0 10.0 0.00 0.00 0.00 62 1011.5
20181218044643 38 216 2.0 10.0 0.00 0.00 0.00 61 1011.5
20181218044506 37 69 1.0 8.0 0.00 0.00 0.00 61 1012.9
20181218043743 38 241 2.0 8.0 0.00 0.00 0.00 61 1011.5
20181218042843 38 12 2.0 6.0 0.00 0.00 0.00 61 1011.7
20181218041943 38 332 2.0 8.0 0.00 0.00 0.00 61 1011.6
20181218041507 38 175 2.0 6.0 0.00 0.00 0.00 62 1012.8
20181218041043 38 48 2.0 7.0 0.00 0.00 0.00 61 1011.4
20181218040143 38 323 2.0 9.0 0.00 0.00 0.00 63 1011.4
20181218035243 38 350 2.0 7.0 0.00 0.00 0.00 62 1011.3
20181218034941 38 329 1.0 9.0 0.00 0.00 0.00 61 1012.5
20181218034343 39 66 2.0 7.0 0.00 0.00 0.00 61 1011.2
20181218033443 39 359 2.0 8.0 0.00 0.00 0.00 60 1011.2
20181218033003 38 329 2.0 11.0 0.00 0.00 0.00 62 1012.6
20181218032543 39 321 3.0 11.0 0.00 0.00 0.00 63 1011.2
20181218031643 39 322 2.0 10.0 0.00 0.00 0.00 64 1011.3
20181218030743 39 304 1.0 12.0 0.00 0.00 0.00 66 1011.4
20181218030002 39 330 2.0 12.0 0.00 0.00 0.00 66 1012.6
20181218025843 39 51 1.0 6.0 0.00 0.00 0.00 66 1011.3
20181218024943 39 300 1.0 5.0 0.00 0.00 0.00 67 1011.5
20181218024043 39 183 0.0 5.0 0.00 0.00 0.00 67 1011.3
20181218023143 39 248 1.0 4.0 0.00 0.00 0.00 67 1011.3
20181218023000 39 215 0.0 7.0 0.00 0.00 0.00 67 1012.5
20181218022243 39 334 1.0 6.0 0.00 0.00 0.00 66 1011.3
20181218021704 39 304 0.0 6.0 0.00 0.00 0.00 67 1012.5
20181218021343 39 7 1.0 6.0 0.00 0.00 0.00 68 1011.2
20181218020443 39 162 0.0 5.0 0.00 0.00 0.00 68 1011.2
20181218020001 39 157 0.0 5.0 0.00 0.00 0.00 68 1012.4
20181218015543 39 16 0.0 5.0 0.00 0.00 0.00 69 1011.2
20181218014643 39 75 0.0 5.0 0.00 0.00 0.00 69 1011.4
20181218013743 39 104 0.0 5.0 0.00 0.00 0.00 69 1011.3
20181218013003 39 146 0.0 4.0 0.00 0.00 0.00 69 1012.5
20181218012843 39 126 1.0 4.0 0.00 0.00 0.00 69 1011.3
20181218011943 40 33 0.0 4.0 0.00 0.00 0.00 68 1011.2
20181218011043 40 164 0.0 3.0 0.00 0.00 0.00 67 1011.3
20181218010143 40 186 1.0 5.0 0.00 0.00 0.00 67 1011.3
20181218010002 39 283 0.0 5.0 0.00 0.00 0.00 67 1012.5
20181218005243 40 238 1.0 7.0 0.00 0.00 0.00 67 1011.1
20181218004343 40 223 1.0 7.0 0.00 0.00 0.00 66 1011.1
20181218003443 40 250 1.0 10.0 0.00 0.00 0.00 66 1011.1
20181218002543 40 238 1.0 7.0 0.00 0.00 0.00 65 1011.1
20181218001648 40 304 0.0 8.0 0.00 0.00 0.00 63 1012.4
20181218001643 40 311 2.0 8.0 0.00 0.00 0.00 63 1011.1
20181218000743 40 321 1.0 7.0 0.00 0.00 0.00 62 1011.1
20181217235843 40 292 1.0 7.0 0.00 0.00 0.00 62 1011.2
20181217234943 40 356 1.0 7.0 0.00 0.01 0.00 62 1011.0
20181217234043 40 215 2.0 7.0 0.00 0.01 0.00 63 1010.8
20181217233143 40 255 1.0 7.0 0.00 0.01 0.00 63 1010.8
20181217232243 40 268 1.0 5.0 0.00 0.02 0.00 63 1010.8
20181217231642 40 233 0.0 7.0 0.00 0.03 0.00 62 1012.0
20181217231343 40 199 2.0 7.0 0.00 0.02 0.00 62 1010.7
20181217230443 40 124 1.0 5.0 0.00 0.03 0.00 62 1010.6
20181217230001 40 132 0.0 5.0 0.00 0.12 0.00 62 1011.7
20181217225543 40 335 1.0 7.0 0.00 0.04 0.00 62 1010.4
20181217224643 41 330 1.0 5.0 0.00 0.05 0.00 62 1010.6
20181217223743 41 346 1.0 8.0 0.00 0.06 0.00 61 1010.4
20181217223002 40 128 0.0 8.0 0.00 0.12 0.00 61 1011.5
20181217222843 41 270 1.0 8.0 0.00 0.09 0.00 61 1010.2
20181217221943 41 32 1.0 7.0 0.00 0.10 0.00 60 1010.2
20181217221043 41 11 1.0 8.0 0.00 0.11 0.00 60 1009.9
20181217220143 41 95 1.0 5.0 0.00 0.12 0.00 61 1009.8
20181217220003 41 324 0.0 5.0 0.00 0.24 0.00 61 1011.1
20181217215243 42 18 1.0 5.0 0.00 0.15 0.00 61 1009.7
20181217214811 41 225 0.0 6.0 0.00 0.24 0.00 60 1010.8
20181217214343 42 335 1.0 7.0 0.00 0.16 0.00 60 1009.7
20181217213443 42 342 1.0 5.0 0.00 0.19 0.00 60 1009.5
20181217213002 41 40 0.0 4.0 0.00 0.24 0.00 60 1010.6
20181217212543 42 309 2.0 7.0 0.00 0.21 0.00 60 1009.4
20181217211643 42 288 2.0 7.0 0.00 0.22 0.00 61 1009.2
20181217210743 42 230 1.0 5.0 0.00 0.23 0.00 61 1009.0
20181217205843 42 312 1.0 8.0 0.00 0.24 0.00 63 1008.9
20181217204943 42 326 0.0 6.0 0.00 0.25 0.00 65 1008.7
20181217204043 42 57 1.0 4.0 0.00 0.26 0.00 65 1008.8
20181217203143 42 213 2.0 8.0 0.00 0.28 0.00 65 1008.5
20181217202243 42 124 2.0 7.0 0.00 0.28 0.00 64 1008.5
20181217201503 42 323 2.0 13.0 0.00 0.31 0.00 63 1009.8
20181217201343 42 173 2.0 13.0 0.00 0.29 0.00 64 1008.3
20181217200443 43 231 2.0 6.0 0.00 0.30 0.00 63 1008.4
20181217195543 43 198 2.0 6.0 0.00 0.32 0.00 64 1008.2
20181217194643 43 289 2.0 10.0 0.00 0.34 0.00 63 1008.2
20181217194502 43 159 4.0 10.0 0.00 0.43 0.00 64 1009.3
20181217193743 43 214 1.0 8.0 0.00 0.36 0.00 63 1008.1
20181217193227 43 196 0.0 7.0 0.00 0.43 0.00 64 1009.3
20181217192843 43 213 2.0 7.0 0.00 0.38 0.00 64 1008.0
20181217191943 44 275 2.0 6.0 0.00 0.39 0.00 63 1007.9
20181217191505 43 329 1.0 10.0 0.00 0.43 0.00 64 1009.2
20181217191043 44 196 2.0 10.0 0.00 0.41 0.00 63 1007.9
20181217190143 44 213 1.0 5.0 0.00 0.43 0.00 62 1007.8
20181217185243 44 219 2.0 8.0 0.00 0.43 0.00 61 1007.8
20181217184343 44 220 2.0 10.0 0.00 0.43 0.00 62 1007.9
20181217183443 44 269 2.0 8.0 0.00 0.43 0.00 63 1007.9
20181217182543 44 241 2.0 8.0 0.00 0.43 0.00 64 1007.8
20181217181643 45 234 1.0 6.0 0.00 0.43 0.00 65 1007.9
20181217180743 44 249 2.0 8.0 0.00 0.43 0.00 68 1007.9
20181217175843 43 212 3.0 13.0 0.00 0.43 0.00 68 1008.2
20181217174943 43 208 3.0 9.0 0.00 0.43 0.00 70 1008.2
20181217174502 42 257 4.0 9.0 0.00 0.43 0.00 70 1009.6
20181217174043 43 221 2.0 9.0 0.00 0.43 0.00 71 1008.2
20181217173143 43 237 1.0 6.0 0.00 0.43 0.00 72 1008.2
20181217172243 43 216 2.0 5.0 0.00 0.43 0.00 72 1008.5
20181217171343 43 241 2.0 12.0 0.00 0.43 0.00 73 1008.5
20181217170443 43 205 1.0 8.0 0.00 0.43 0.00 73 1008.5
20181217165543 43 188 1.0 8.0 0.00 0.43 0.00 74 1008.7
20181217164643 43 205 2.0 10.0 0.00 0.43 0.00 75 1008.7
20181217164502 42 332 0.0 10.0 0.00 0.43 0.00 75 1010.2
20181217163743 43 204 1.0 10.0 0.00 0.43 0.00 76 1008.8
20181217162843 43 244 1.0 6.0 0.00 0.43 0.00 76 1008.9
20181217161943 42 222 2.0 8.0 0.00 0.43 0.00 77 1009.0
20181217161501 42 213 2.0 8.0 0.00 0.43 0.00 77 1010.6
20181217161043 42 222 2.0 8.0 0.00 0.43 0.00 77 1009.3
20181217160143 43 238 2.0 10.0 0.00 0.43 0.00 76 1009.5
20181217155243 43 220 1.0 10.0 0.00 0.43 0.00 75 1009.4
20181217154343 43 194 1.0 7.0 0.00 0.43 0.00 75 1009.3
20181217153443 43 200 0.0 5.0 0.00 0.43 0.00 78 1009.3
20181217152543 43 193 1.0 4.0 0.00 0.43 0.00 80 1009.3
20181217151643 43 203 1.0 6.0 0.00 0.43 0.00 79 1009.4
20181217150743 43 187 1.0 4.0 0.00 0.43 0.00 80 1009.4
20181217145843 43 141 1.0 4.0 0.00 0.43 0.00 77 1009.5
20181217144943 43 193 1.0 6.0 0.00 0.43 0.00 78 1009.5
20181217144043 43 195 0.0 6.0 0.00 0.43 0.00 78 1009.6
20181217143143 42 220 1.0 5.0 0.00 0.43 0.00 79 1009.6
20181217142243 42 200 1.0 6.0 0.00 0.43 0.00 81 1009.6
20181217141512 41 190 1.0 7.0 0.00 0.43 0.00 82 1011.1
20181217141343 42 203 1.0 7.0 0.00 0.43 0.00 82 1009.8
20181217140443 41 210 1.0 5.0 0.00 0.43 0.00 84 1009.8
20181217140142 41 184 0.0 5.0 0.00 0.43 0.00 85 1011.1
20181217135543 41 208 1.0 6.0 0.00 0.43 0.00 86 1009.7
20181217134643 41 206 0.0 6.0 0.00 0.43 0.00 89 1009.7
20181217133743 40 191 0.0 1.0 0.00 0.43 0.00 92 1009.6
20181217133008 39 191 0.0 0.0 0.00 0.43 0.00 92 1011.0
20181217132843 39 0 0.0 0.0 0.00 0.43 0.00 92 1009.6
20181217131943 39 0 0.0 0.0 0.00 0.43 0.00 92 1009.7
20181217131043 39 0 0.0 0.0 0.00 0.43 0.00 92 1009.5
20181217130143 39 0 0.0 0.0 0.00 0.43 0.00 92 1009.4
20181217130001 39 191 0.0 0.0 0.00 0.43 0.00 92 1010.8
20181217125243 39 0 0.0 0.0 0.00 0.43 0.00 91 1009.4
20181217124343 39 0 0.0 0.0 0.00 0.43 0.00 91 1009.4
20181217123443 40 0 0.0 0.0 0.00 0.43 0.00 90 1009.6
20181217122543 40 0 0.0 0.0 0.00 0.43 0.00 90 1009.7
20181217121643 40 0 0.0 0.0 0.00 0.43 0.00 91 1009.9
20181217120743 40 0 0.0 0.0 0.00 0.43 0.00 90 1010.1
20181217120003 39 191 0.0 0.0 0.00 0.45 0.00 90 1011.6
20181217115843 40 0 0.0 0.0 0.00 0.43 0.00 90 1010.2